Weather Roundup
Issued by NWS Chicago, IL

Home | Current Version | Previous Version | Graphics & Text | Print | Product List | Glossary On
Versions: 1 2 3 4 5 6 7 8 9 10 11 12 13 14 15 16 17 18 19 20 21 22 23 24 25 26 27 28 29 30 31 32 33 34 35 36 37 38 39 40 41 42 43 44 45 46 47 48 49 50
000
NZUS59 KLOT 300208
HRRLOT

CHICAGO AREA WEATHER ROUNDUP
NATIONAL WEATHER SERVICE CHICAGO/ROMEOVILLE IL
900 PM CDT SUN MAR 29 2015

NOTE: "FAIR" INDICATES FEW OR NO CLOUDS BELOW 12,000 FEET WITH NO
SIGNIFICANT WEATHER AND/OR OBSTRUCTIONS TO VISIBILITY.

* THESE STATIONS ARE NOT UNDER NWS QUALITY CONTROL. THEY ALSO MAY NOT
  REPORT WEATHER SUCH AS PRECIPITATION OR FOG.

ILZ005-006-012>014-019>023-300300-
NORTHEAST ILLINOIS

CITY           SKY/WX    TMP DP  RH WIND       PRES   REMARKS
OHARE          PTCLDY    45  34  65 NW14      29.86R
MIDWAY         MOCLDY    48  36  63 W13G24    29.87R
AURORA         CLEAR     42  33  70 W13       29.89R
LANSING*       CLOUDY    47  34  59 NW17G30   29.88R
JOLIET*        PTCLDY    47  35  63 W12G17    29.90R
WAUKEGAN       MOCLDY    43  35  73 W13G22    29.83R
DUPAGE AIRPORT CLEAR     43  33  68 W13       29.87R
WHEELING       MOCLDY    45  34  65 W12       29.87R
KANKAKEE*      CLOUDY    48  40  74 W21G37    29.90R
MORRIS*        PTCLDY    44  35  70 NW12      29.91R
LEWIS AIRPORT* CLEAR     44  34  68 NW17      29.89R
NORTHERLY IS     N/A     47  35  63 NW12        N/A
$$

WIZ051-052-058>065-066-070>072-300300-
SOUTHEAST WISCONSIN

CITY           SKY/WX    TMP DP  RH WIND       PRES   REMARKS
MILWAUKEE      CLOUDY    44  33  65 NW16G26   29.82R
KENOSHA*       CLOUDY    44  35  70 W14G25    29.83R
RACINE*        CLOUDY    44  34  67 W13G23    29.83R
BURLINGTON     CLOUDY    41  34  77 W9        29.85R
WAUKESHA       CLOUDY    39  34  81 W17G29    29.83R
WEST BEND      CLOUDY    39  32  75 W17G25    29.79R
$$

INZ001>003-010>013-019-020-300300-
NORTHWEST INDIANA

CITY           SKY/WX    TMP DP  RH WIND       PRES   REMARKS
GARY*          CLOUDY    50  34  53 NW17G33   29.87R
MICHIGAN CITY* NOT AVBL
RENSSELAER*    NOT AVBL
VALPARAISO     CLOUDY    46  37  71 W20G25    29.85R
$$

LMZ740>746-300300-
SOUTHERN LAKE MICHIGAN

STATION/POSITION TIME  SKY/WX   TEMP WIND        PRES    VSBY
                                AIR  DIR/SP/G
                 (UTC)          (F)  (DEG/KT/KT) (MB)    (MI)
HARRISON CRIB    0100            47  290/ 28/ 34   N/A
BURNHAM HARBOR   0200            47  270/  7/ 23   N/A
CALUMET HARBOR   0106            50  250/ 11/ 23 1008.6R
BURNS HARBOR     0120            48  220/ 20     1009.8R
MICHIGAN CITY    0100            46  190/ 20/ 23   N/A
$$

ABBREVIATIONS USED IN REMARKS
   TC - TEMPERATURE IN CELSIUS
  WCI - WIND CHILL INDEX
   HX - HEAT INDEX
  VSB - VISIBILITY
$$


USA.gov is the U.S. government's official web portal to all federal, state and local government web resources and services.